[[{"header":{"parameterUnit":"m.s-1","parameterCategory":1,"la1":30.2991,"la2":30.254,"lo1":-89.0895,"lo2":-89.0444,"dy":0.0017,"dx":0.0017,"nx":28,"ny":28,"refTime":"2023-08-27T21:00:00:Z","depth":0,"parameterNumber":2,"parameterNumberName":"U-component_of_WINDS"},"data":[0,0,0,0,0,0,0,0,0,0,0,0,0,0,0,0,0,0,0,0,0,0,0,0,0,0,0,0,0,0,0,0,0,0,0,0,0,0,0,0,0,0,0,0,0,0,0,0,0,0,0,0,0,0,0,0,0,0,-1.3674,-1.3674,0,-1.3635,-1.3635,-1.3634,-1.3643,-1.3644,-1.3645,-1.3646,-1.3602,-1.36,-1.3598,0,0,0,0,0,0,0,0,0,0,0,0,0,-1.3757,-1.3755,-1.3674,-1.3674,-1.3673,-1.3635,-1.3635,-1.3634,-1.3643,-1.3644,-1.3645,-1.3646,-1.3603,-1.3601,-1.3598,0,0,0,0,0,0,0,0,0,0,0,0,0,-1.372,-1.3755,-1.3674,-1.3673,-1.3673,-1.3635,-1.3635,-1.3634,-1.3643,-1.3644,-1.3645,-1.3647,-1.3604,-1.3601,-1.3598,-1.3558,0,0,-1.3589,-1.3588,0,0,0,0,0,0,0,0,-1.3722,-1.3717,-1.3674,-1.3673,-1.3673,-1.3645,-1.3648,-1.3608,-1.3643,-1.3654,-1.3646,-1.3647,-1.3615,-1.3612,-1.3602,-1.3556,-1.3554,-1.3589,-1.3587,-1.3586,-1.3585,0,0,0,0,0,0,0,-1.3724,-1.3718,-1.3659,-1.3673,-1.3673,-1.3675,-1.3671,-1.364,-1.3629,-1.3653,-1.3654,-1.3649,-1.3615,-1.3604,-1.3601,-1.3553,-1.3589,-1.3587,-1.3585,-1.3584,-1.3476,-1.3474,0,0,0,0,0,0,-1.3728,-1.372,-1.366,-1.3657,-1.3701,-1.3673,-1.3668,-1.3653,-1.3629,-1.3627,-1.3649,-1.365,-1.3609,-1.3604,-1.3599,-1.3552,-1.3586,-1.3584,-1.3582,-1.3477,-1.3475,-1.3474,0,0,0,0,0,0,-1.3729,-1.3722,-1.3661,-1.3689,-1.3682,-1.367,-1.3653,-1.3652,-1.3641,-1.3626,-1.3623,-1.3639,-1.3609,-1.3603,-1.3569,-1.355,-1.3582,-1.358,-1.3478,-1.3476,-1.3475,-1.3456,0,0,0,0,0,0,-1.3732,-1.3723,-1.3707,-1.3689,-1.368,-1.3631,-1.3652,-1.365,-1.3636,-1.3638,-1.3616,-1.3614,-1.361,-1.3573,-1.3566,-1.3547,-1.3578,-1.348,-1.3477,-1.3475,-1.3458,-1.3454,-1.345,0,0,0,0,0,-1.3735,-1.3702,-1.3706,-1.3699,-1.366,-1.363,-1.3625,-1.3622,-1.3635,-1.3619,-1.361,-1.3615,-1.3554,-1.3569,-1.3562,-1.3542,-1.3481,-1.3478,-1.3475,-1.346,-1.3455,-1.345,0,0,0,0,0,0,-1.3715,-1.3699,-1.3704,-1.3664,-1.3649,-1.3632,-1.3611,-1.3616,-1.3596,-1.3598,-1.3594,-1.359,-1.3555,-1.3545,-1.3562,-1.3503,-1.3519,-1.3515,-1.351,-1.3505,-1.3501,-1.3503,-1.3575,0,0,0,0,0,-1.3707,-1.3685,-1.3672,-1.3638,-1.363,-1.3623,-1.3609,-1.3609,-1.3592,-1.3586,-1.3574,-1.3557,-1.3535,-1.352,-1.3498,-1.3458,-1.3454,-1.3441,-1.3437,-1.3434,-1.3429,-1.341,-1.3404,-1.3465,-1.3465,-1.3465,0,0,-1.3688,-1.3677,-1.3662,-1.3634,-1.3622,-1.3599,-1.3617,-1.3591,-1.3574,-1.3581,-1.3549,-1.354,-1.3522,-1.3485,-1.3468,-1.3476,-1.3412,-1.343,-1.3428,-1.3425,-1.3406,-1.3401,-1.3395,-1.3463,-1.3464,-1.3464,0,0,-1.3642,-1.3631,-1.3603,-1.3592,-1.3575,-1.3571,-1.3565,-1.3548,-1.3544,-1.3512,-1.3517,-1.3498,-1.3458,-1.3446,-1.3434,-1.339,-1.3394,-1.3383,-1.3361,-1.3342,-1.3337,-1.3333,-1.3317,-1.3312,-1.3379,-1.3379,-1.3379,0,-1.362,-1.3587,-1.3588,-1.3563,-1.3551,-1.3559,-1.3531,-1.352,-1.3496,-1.3488,-1.3498,-1.3452,-1.3439,-1.3401,-1.3391,-1.3381,-1.3374,-1.3384,-1.3338,-1.3334,-1.3329,-1.3315,-1.3309,-1.3378,-1.3378,-1.3378,-1.3378,0,-1.3561,-1.3539,-1.3518,-1.3498,-1.3484,-1.3457,-1.3454,-1.344,-1.3443,-1.3438,-1.3407,-1.3393,-1.3371,-1.3362,-1.3362,-1.3325,-1.333,-1.3339,-1.3355,-1.3322,-1.3309,-1.3303,-1.3376,-1.3377,-1.3377,-1.3377,0,0,-1.3497,-1.3482,-1.3474,-1.3467,-1.3451,-1.3433,-1.3409,-1.3388,-1.3377,-1.3362,-1.3341,-1.331,-1.332,-1.3307,-1.3307,-1.3291,-1.3258,-1.3302,-1.3301,-1.3294,-1.3217,-1.321,-1.3203,-1.3262,-1.3261,-1.326,-1.3219,0,-1.345,-1.3407,-1.341,-1.3369,-1.3349,-1.336,-1.3339,-1.3327,-1.3324,-1.3306,-1.3302,-1.328,-1.3294,-1.3287,-1.3271,-1.3265,-1.3242,-1.3268,-1.3242,-1.3241,-1.3245,-1.3196,-1.3187,-1.3148,-1.3213,-1.3212,-1.3212,0,-1.3387,-1.3373,-1.3332,-1.3323,-1.3315,-1.3295,-1.3279,-1.3262,-1.3251,-1.3249,-1.3238,-1.3242,-1.3218,-1.3237,-1.3204,-1.3222,-1.3212,-1.3208,-1.3207,-1.3203,-1.3223,-1.319,-1.3135,-1.3129,-1.3203,-1.3204,-1.3204,0,-1.3345,-1.3316,-1.3288,-1.3281,-1.327,-1.3257,-1.3251,-1.3241,-1.323,-1.3216,-1.3209,-1.3192,-1.3182,-1.3169,-1.3169,-1.3183,-1.3137,-1.3155,-1.3135,-1.3135,-1.3122,-1.3123,-1.3065,-1.3118,-1.3118,-1.3119,-1.3119,0,-1.3291,-1.3265,-1.3269,-1.3252,-1.3224,-1.3229,-1.3201,-1.3197,-1.3189,-1.3171,-1.318,-1.3163,-1.3165,-1.3148,-1.3149,-1.3123,-1.3118,-1.3116,-1.3116,-1.3115,-1.3115,-1.3107,-1.3109,-1.3117,-1.3117,-1.3118,-1.3118,0,-1.3237,-1.3239,-1.321,-1.3204,-1.3202,-1.3182,-1.3176,-1.316,-1.316,-1.3138,-1.3133,-1.3131,-1.3112,-1.3112,-1.309,-1.3091,-1.3059,-1.3062,-1.3063,-1.3063,-1.3043,-1.3045,-1.2977,-1.2969,-1.3028,-1.3028,-1.3027,0,-1.3202,-1.3183,-1.3176,-1.3166,-1.3161,-1.3144,-1.3134,-1.3139,-1.3128,-1.3117,-1.3102,-1.3085,-1.3072,-1.3042,-1.3039,-1.3023,-1.3026,-1.3003,-1.3023,-1.3023,-1.3025,-1.3026,-1.3024,-1.2998,-1.2998,-1.2997,-1.2997,0,-1.3138,-1.3142,-1.3127,-1.3115,-1.3103,-1.3093,-1.3084,-1.3075,-1.3079,-1.3067,-1.305,-1.304,-1.302,-1.3003,-1.2989,-1.2984,-1.2991,-1.2992,-1.2986,-1.2983,-1.2984,-1.2983,-1.3051,-1.2992,-1.2992,-1.2993,-1.2993,-1.2993,-1.3092,-1.3077,-1.3071,-1.3056,-1.3051,-1.3043,-1.3029,-1.3028,-1.3014,-1.2999,-1.3004,-1.2984,-1.2977,-1.2959,-1.2953,-1.2939,-1.2946,-1.2938,-1.2936,-1.2933,-1.2931,-1.2989,-1.2936,-1.2936,-1.2936,-1.2937,-1.2937,0,-1.3029,-1.3027,-1.3014,-1.3002,-1.2991,-1.3003,-1.2994,-1.2984,-1.2967,-1.2961,-1.2949,-1.293,-1.2915,-1.2913,-1.2899,-1.2888,-1.2891,-1.2884,-1.2884,-1.2883,-1.2925,-1.2931,-1.2882,-1.2882,-1.2882,-1.2882,-1.2882,-1.2882,-1.2995,-1.297,-1.2974,-1.2948,-1.2946,-1.2928,-1.2923,-1.2916,-1.2912,-1.2891,-1.288,-1.288,-1.2875,-1.2862,-1.285,-1.285,-1.2844,-1.2835,-1.2836,-1.2875,-1.288,-1.2885,-1.2891,-1.2834,-1.2834,-1.2796,-1.2795,-1.2795]},{"header":{"parameterUnit":"m.s-1","parameterCategory":1,"la1":30.2991,"la2":30.254,"lo1":-89.0895,"lo2":-89.0444,"dy":0.0017,"dx":0.0017,"nx":28,"ny":28,"refTime":"2023-08-27T21:00:00:Z","depth":0,"parameterNumber":3,"parameterNumberName":"V-component_of_WINDS"},"data":[0,0,0,0,0,0,0,0,0,0,0,0,0,0,0,0,0,0,0,0,0,0,0,0,0,0,0,0,0,0,0,0,0,0,0,0,0,0,0,0,0,0,0,0,0,0,0,0,0,0,0,0,0,0,0,0,0,0,2.7705,2.7705,0,2.7687,2.7687,2.7687,2.7631,2.763,2.7629,2.7627,2.7609,2.761,2.761,0,0,0,0,0,0,0,0,0,0,0,0,0,2.7689,2.769,2.7705,2.7705,2.7705,2.7687,2.7687,2.7687,2.7631,2.763,2.7628,2.7627,2.7609,2.761,2.761,0,0,0,0,0,0,0,0,0,0,0,0,0,2.7686,2.769,2.7705,2.7675,2.7672,2.7687,2.7687,2.7687,2.7632,2.763,2.7628,2.7626,2.7609,2.7609,2.761,2.7654,0,0,2.7614,2.7614,0,0,0,0,0,0,0,0,2.7687,2.7687,2.7679,2.7677,2.7674,2.766,2.7675,2.7676,2.7632,2.7647,2.7627,2.7625,2.7627,2.7627,2.7627,2.7653,2.7652,2.7614,2.7614,2.7615,2.7615,0,0,0,0,0,0,0,2.7687,2.7688,2.7698,2.7679,2.7676,2.7662,2.7659,2.7675,2.7648,2.7645,2.7641,2.764,2.7625,2.7627,2.7627,2.7652,2.7614,2.7614,2.7615,2.7615,2.7709,2.7711,0,0,0,0,0,0,2.7692,2.7688,2.7699,2.7697,2.7676,2.7664,2.7661,2.7666,2.7647,2.7643,2.7642,2.7638,2.7626,2.7625,2.7626,2.7672,2.7615,2.7616,2.7616,2.7707,2.7709,2.7711,0,0,0,0,0,0,2.7692,2.7693,2.7699,2.7692,2.7691,2.7666,2.7672,2.7667,2.7668,2.7645,2.7639,2.7648,2.7624,2.7624,2.7647,2.7671,2.7616,2.7617,2.7705,2.7708,2.771,2.7767,0,0,0,0,0,0,2.7691,2.7693,2.771,2.7692,2.7692,2.7721,2.7674,2.7668,2.767,2.7664,2.7649,2.7645,2.7623,2.7645,2.7648,2.7671,2.7618,2.7703,2.7706,2.771,2.7763,2.7771,2.7779,0,0,0,0,0,2.7691,2.7727,2.7711,2.7712,2.7712,2.7722,2.7722,2.7696,2.7672,2.7687,2.7672,2.7645,2.7669,2.7648,2.765,2.7674,2.7701,2.7705,2.7709,2.7759,2.7769,2.7778,0,0,0,0,0,0,2.7748,2.7724,2.7706,2.7737,2.7732,2.7713,2.7732,2.7709,2.771,2.7705,2.7673,2.767,2.7696,2.7688,2.7666,2.7714,2.768,2.7685,2.7717,2.7727,2.7735,2.7734,2.7619,0,0,0,0,0,2.7764,2.7775,2.7754,2.7783,2.7782,2.7758,2.7761,2.7742,2.7735,2.7732,2.7719,2.7713,2.7719,2.7723,2.7728,2.7763,2.7757,2.778,2.7788,2.7795,2.7798,2.7813,2.7822,2.7725,2.7725,2.7725,0,0,2.7797,2.7786,2.7794,2.7794,2.7788,2.7798,2.7756,2.777,2.7776,2.7734,2.7753,2.7744,2.7735,2.7763,2.7775,2.7757,2.7824,2.78,2.7806,2.7805,2.7818,2.7827,2.7835,2.7728,2.7728,2.7727,0,0,2.7862,2.7856,2.7878,2.7873,2.7864,2.7848,2.7853,2.7838,2.7829,2.7848,2.7816,2.7825,2.7836,2.783,2.7829,2.7892,2.7866,2.7895,2.7935,2.795,2.7957,2.7963,2.7982,2.799,2.7899,2.7899,2.7899,0,2.7904,2.7919,2.7893,2.7908,2.7908,2.7871,2.7892,2.7889,2.7882,2.7882,2.7863,2.7875,2.7867,2.7892,2.7907,2.7909,2.7912,2.7894,2.7958,2.7965,2.797,2.7988,2.7995,2.7902,2.7902,2.7902,2.7901,0,2.7969,2.798,2.8,2.7992,2.7995,2.8014,2.799,2.7996,2.7977,2.7963,2.7981,2.7971,2.7971,2.7976,2.7959,2.7998,2.7987,2.7964,2.7928,2.7983,2.7999,2.8005,2.7907,2.7906,2.7905,2.7904,0,0,2.8066,2.8045,2.8052,2.8047,2.8035,2.8043,2.806,2.806,2.8064,2.8061,2.8072,2.8083,2.8061,2.806,2.8041,2.8055,2.8101,2.803,2.8029,2.804,2.814,2.8154,2.8162,2.8086,2.8087,2.8088,2.8139,0,2.8124,2.815,2.8127,2.8157,2.8165,2.8131,2.8145,2.8139,2.8127,2.8131,2.8118,2.8124,2.8097,2.8095,2.8108,2.8093,2.812,2.809,2.8093,2.8093,2.8092,2.8171,2.8186,2.8235,2.8146,2.8147,2.8147,0,2.8194,2.8193,2.8224,2.8208,2.821,2.8224,2.8221,2.8227,2.8219,2.8209,2.8207,2.8185,2.8199,2.8168,2.8185,2.8165,2.8166,2.8159,2.816,2.8156,2.8121,2.8165,2.825,2.8256,2.8158,2.8157,2.8156,0,2.8256,2.8264,2.8282,2.828,2.8263,2.8272,2.8266,2.8256,2.8257,2.8255,2.8255,2.8256,2.8255,2.8255,2.8233,2.8213,2.8253,2.822,2.8242,2.8242,2.8248,2.8247,2.8331,2.8256,2.8256,2.8256,2.8256,0,2.832,2.8339,2.8309,2.832,2.834,2.8314,2.8335,2.8325,2.8316,2.8324,2.8297,2.8304,2.8276,2.8281,2.8264,2.8279,2.8281,2.8271,2.8266,2.8271,2.8272,2.8268,2.8262,2.8258,2.8258,2.8257,2.8257,0,2.8391,2.8372,2.8389,2.8372,2.8368,2.8383,2.8368,2.8377,2.8364,2.8373,2.8374,2.8353,2.8357,2.8336,2.8337,2.8325,2.8347,2.8338,2.8349,2.8345,2.8366,2.8363,2.8446,2.8455,2.8379,2.838,2.8381,0,2.8431,2.8444,2.8429,2.8432,2.8426,2.8432,2.8433,2.8409,2.8411,2.8402,2.8412,2.8414,2.8413,2.8421,2.8405,2.8405,2.8393,2.8422,2.8392,2.8397,2.8388,2.8386,2.8386,2.8427,2.8428,2.8429,2.843,0,2.8502,2.8492,2.8494,2.8493,2.8494,2.8492,2.8488,2.8493,2.8467,2.847,2.8474,2.8473,2.8474,2.8475,2.8472,2.8464,2.8442,2.844,2.8444,2.8447,2.8452,2.8446,2.8361,2.8437,2.8436,2.8436,2.8435,2.8435,2.8555,2.8565,2.8555,2.8558,2.8552,2.8549,2.8556,2.8543,2.8546,2.8544,2.853,2.8536,2.8527,2.852,2.8515,2.8518,2.8504,2.8511,2.8512,2.8513,2.8515,2.8455,2.8518,2.8518,2.8518,2.8518,2.8517,0,2.8622,2.8614,2.8617,2.8612,2.8614,2.8595,2.8589,2.8592,2.8597,2.8591,2.8591,2.8594,2.8595,2.858,2.8579,2.8585,2.8574,2.8585,2.8582,2.858,2.853,2.8525,2.8593,2.8593,2.8593,2.8593,2.8593,2.8593,2.8656,2.867,2.8659,2.867,2.8662,2.8666,2.8665,2.8661,2.8656,2.866,2.8661,2.8652,2.8641,2.8639,2.8639,2.8634,2.8633,2.8647,2.8638,2.8591,2.8584,2.8577,2.8571,2.8648,2.8648,2.8687,2.8687,2.8688]}]]